[[{"header":{"parameterUnit":"m.s-1","parameterCategory":1,"la1":30.2991,"la2":30.254,"lo1":-89.0895,"lo2":-89.0444,"dy":0.0017,"dx":0.0017,"nx":28,"ny":28,"refTime":"2024-08-12T21:00:00:Z","depth":0,"parameterNumber":2,"parameterNumberName":"U-component_of_WINDS"},"data":[0,0,0,0,0,0,0,0,0,0,0,0,0,0,0,0,0,0,0,0,0,0,0,0,0,0,0,0,0,0,0,0,0,0,0,0,0,0,0,0,0,0,0,0,0,0,0,0,0,0,0,0,0,0,0,0,0,0,0.0035,0.0035,0,0.0091,0.0091,0.0092,0.0139,0.014,0.014,0.0141,0.02,0.0201,0.0202,0,0,0,0,0,0,0,0,0,0,0,0,0,-0.0029,-0.0028,0.0035,0.0035,0.0036,0.0091,0.0091,0.0092,0.0139,0.014,0.014,0.0141,0.02,0.0201,0.0202,0,0,0,0,0,0,0,0,0,0,0,0,0,0.001,-0.0028,0.0035,0.0066,0.007,0.009,0.0091,0.0092,0.0139,0.014,0.0141,0.0141,0.0199,0.0201,0.0202,0.0197,0,0,0.0207,0.0208,0,0,0,0,0,0,0,0,0.0008,0.0012,0.0061,0.0064,0.0068,0.0109,0.0091,0.0127,0.0139,0.0113,0.0141,0.0142,0.0169,0.0173,0.0182,0.02,0.0202,0.0207,0.0208,0.0209,0.021,0,0,0,0,0,0,0,0.0005,0.001,0.0057,0.0061,0.0066,0.0078,0.0085,0.0098,0.0136,0.0115,0.0119,0.0125,0.0171,0.018,0.0184,0.0203,0.0207,0.0209,0.021,0.0211,0.022,0.0219,0,0,0,0,0,0,-0.0003,0.0008,0.0055,0.0059,0.0039,0.0079,0.0086,0.0095,0.0136,0.0143,0.0124,0.0127,0.0177,0.0182,0.0186,0.0182,0.0209,0.0211,0.0212,0.022,0.0219,0.0219,0,0,0,0,0,0,-0.0004,0.0001,0.0053,0.0034,0.0042,0.0079,0.0089,0.0096,0.0105,0.0142,0.015,0.0126,0.0178,0.0184,0.0194,0.0185,0.0211,0.0213,0.0221,0.022,0.0219,0.0174,0,0,0,0,0,0,-0.0006,0.0,-0.0002,0.0034,0.0042,0.0059,0.0088,0.0096,0.0107,0.0111,0.0146,0.0153,0.0179,0.0191,0.0195,0.0188,0.0214,0.0222,0.0221,0.0219,0.0177,0.0172,0.0168,0,0,0,0,0,-0.0009,-0.0017,-0.0003,0.0003,0.004,0.0058,0.0063,0.0093,0.0106,0.0105,0.0129,0.0152,0.0185,0.0192,0.0197,0.019,0.0223,0.0221,0.0219,0.0179,0.0173,0.0168,0,0,0,0,0,0,-0.0054,-0.0011,0.0005,0.0008,0.0029,0.0066,0.0065,0.0085,0.0103,0.0107,0.0143,0.0151,0.0157,0.0175,0.0181,0.0187,0.0207,0.0206,0.0175,0.0169,0.0165,0.016,0.0216,0,0,0,0,0,-0.0064,-0.0053,-0.0016,-0.0017,-0.0007,0.0027,0.0036,0.0057,0.008,0.009,0.0115,0.0137,0.0153,0.0162,0.0179,0.018,0.0188,0.0178,0.0173,0.0169,0.0168,0.017,0.0165,0.0213,0.0213,0.0213,0,0,-0.0083,-0.0059,-0.0054,-0.0025,-0.0006,0.0004,0.0034,0.0044,0.0052,0.0091,0.0102,0.0121,0.0149,0.0154,0.0158,0.0169,0.0157,0.0167,0.0164,0.0165,0.0168,0.0163,0.0159,0.0212,0.0212,0.0212,0,0,-0.0114,-0.0094,-0.0093,-0.0075,-0.0047,-0.0024,-0.0024,0.001,0.0024,0.0036,0.0065,0.0076,0.0102,0.0121,0.0133,0.011,0.0132,0.0115,0.009,0.0092,0.0088,0.0085,0.0076,0.0073,0.0114,0.0113,0.0113,0,-0.0142,-0.0126,-0.0094,-0.0087,-0.0074,-0.0039,-0.0036,-0.002,0.0012,0.002,0.0032,0.0065,0.0087,0.0097,0.0091,0.01,0.0102,0.011,0.0086,0.0083,0.0081,0.0073,0.007,0.0111,0.0111,0.0112,0.0112,0,-0.0162,-0.0151,-0.0153,-0.0124,-0.0111,-0.0107,-0.0074,-0.0065,-0.0045,-0.0023,-0.0012,0.0015,0.0037,0.0042,0.0062,0.0055,0.0061,0.0079,0.01,0.0073,0.0066,0.0064,0.0108,0.0109,0.0109,0.011,0,0,-0.0221,-0.0174,-0.0175,-0.0161,-0.0128,-0.0118,-0.0111,-0.009,-0.0083,-0.0062,-0.0055,-0.0034,-0.0017,-0.0002,0.0021,0.0022,0.0001,0.004,0.0041,0.0031,-0.0005,-0.002,-0.0024,0.0017,0.0016,0.0016,-0.0007,0,-0.0247,-0.0233,-0.0204,-0.0199,-0.0189,-0.0154,-0.0148,-0.0127,-0.0106,-0.0093,-0.007,-0.0055,-0.0034,-0.0025,-0.0022,0.0003,-0.0006,0.0005,0.0023,0.0023,0.0014,-0.0027,-0.0043,-0.0066,-0.001,-0.001,-0.0011,0,-0.0275,-0.0257,-0.0252,-0.0219,-0.0213,-0.0209,-0.0186,-0.0175,-0.0149,-0.0134,-0.0118,-0.0093,-0.0083,-0.0063,-0.0049,-0.0042,-0.0032,-0.0019,-0.0019,-0.0017,0.0004,-0.0027,-0.0073,-0.0077,-0.0014,-0.0014,-0.0014,0,-0.032,-0.0294,-0.0287,-0.0276,-0.0237,-0.0235,-0.0218,-0.0192,-0.0181,-0.0161,-0.0153,-0.0133,-0.0121,-0.0105,-0.0075,-0.0063,-0.0064,-0.0042,-0.0052,-0.0052,-0.0054,-0.0055,-0.01,-0.0047,-0.0047,-0.0047,-0.0047,0,-0.0353,-0.0351,-0.0307,-0.0303,-0.03,-0.0266,-0.0263,-0.0243,-0.022,-0.0211,-0.0179,-0.0171,-0.0131,-0.0118,-0.0094,-0.0087,-0.0081,-0.0069,-0.0063,-0.0072,-0.0074,-0.0067,-0.0065,-0.0048,-0.0047,-0.0047,-0.0047,0,-0.0402,-0.0373,-0.0363,-0.0327,-0.0318,-0.0317,-0.0286,-0.028,-0.0257,-0.0247,-0.0242,-0.0206,-0.0189,-0.0157,-0.0131,-0.0115,-0.0113,-0.0101,-0.0122,-0.0118,-0.013,-0.013,-0.0173,-0.0177,-0.0121,-0.0121,-0.0122,0,-0.0426,-0.0424,-0.0388,-0.038,-0.0365,-0.0352,-0.0341,-0.0307,-0.0296,-0.0267,-0.0265,-0.0246,-0.0229,-0.0204,-0.0175,-0.0155,-0.0143,-0.0159,-0.014,-0.015,-0.0144,-0.0145,-0.0145,-0.0164,-0.0165,-0.0166,-0.0166,0,-0.0471,-0.0456,-0.0442,-0.0422,-0.0409,-0.0392,-0.0372,-0.0368,-0.0329,-0.0318,-0.0301,-0.0288,-0.0262,-0.0244,-0.0219,-0.0201,-0.0178,-0.0172,-0.0174,-0.0184,-0.0197,-0.0191,-0.0135,-0.0172,-0.0171,-0.0171,-0.0171,-0.017,-0.0509,-0.0505,-0.048,-0.0464,-0.0446,-0.0429,-0.0422,-0.0398,-0.0384,-0.036,-0.034,-0.0325,-0.0299,-0.0264,-0.0247,-0.0234,-0.0223,-0.0225,-0.0225,-0.0227,-0.0231,-0.0198,-0.023,-0.0229,-0.0229,-0.0229,-0.0229,0,-0.0553,-0.0534,-0.0521,-0.0495,-0.0483,-0.0461,-0.0439,-0.043,-0.0417,-0.0395,-0.0379,-0.0359,-0.0341,-0.031,-0.0289,-0.0285,-0.0273,-0.0281,-0.0281,-0.0277,-0.0242,-0.0243,-0.029,-0.029,-0.029,-0.029,-0.029,-0.029,-0.0575,-0.0568,-0.055,-0.0534,-0.0515,-0.0501,-0.0489,-0.0473,-0.0455,-0.0435,-0.042,-0.04,-0.0374,-0.0351,-0.0333,-0.0325,-0.0319,-0.033,-0.0318,-0.0286,-0.028,-0.0274,-0.0276,-0.0329,-0.0329,-0.0354,-0.0355,-0.0355]},{"header":{"parameterUnit":"m.s-1","parameterCategory":1,"la1":30.2991,"la2":30.254,"lo1":-89.0895,"lo2":-89.0444,"dy":0.0017,"dx":0.0017,"nx":28,"ny":28,"refTime":"2024-08-12T21:00:00:Z","depth":0,"parameterNumber":3,"parameterNumberName":"V-component_of_WINDS"},"data":[0,0,0,0,0,0,0,0,0,0,0,0,0,0,0,0,0,0,0,0,0,0,0,0,0,0,0,0,0,0,0,0,0,0,0,0,0,0,0,0,0,0,0,0,0,0,0,0,0,0,0,0,0,0,0,0,0,0,0.7074,0.7074,0,0.7089,0.7089,0.7089,0.7099,0.7099,0.7099,0.7099,0.7112,0.7113,0.7113,0,0,0,0,0,0,0,0,0,0,0,0,0,0.7049,0.705,0.7074,0.7074,0.7074,0.7089,0.7089,0.7089,0.7099,0.7099,0.7099,0.7099,0.7112,0.7113,0.7113,0,0,0,0,0,0,0,0,0,0,0,0,0,0.7061,0.705,0.7074,0.7081,0.7082,0.7089,0.7089,0.7089,0.7099,0.7099,0.7099,0.7099,0.7112,0.7113,0.7113,0.7114,0,0,0.7114,0.7115,0,0,0,0,0,0,0,0,0.7061,0.7062,0.708,0.708,0.7081,0.7092,0.7085,0.7097,0.7099,0.7092,0.7099,0.7099,0.7105,0.7106,0.7109,0.7114,0.7115,0.7114,0.7115,0.7115,0.7115,0,0,0,0,0,0,0,0.706,0.7062,0.708,0.708,0.7081,0.7082,0.7084,0.7087,0.7098,0.7093,0.7094,0.7095,0.7106,0.7108,0.7109,0.7115,0.7114,0.7115,0.7115,0.7115,0.7117,0.7117,0,0,0,0,0,0,0.7058,0.7061,0.7079,0.708,0.7071,0.7082,0.7084,0.7088,0.7098,0.71,0.7095,0.7096,0.7108,0.7109,0.711,0.7108,0.7115,0.7115,0.7116,0.7117,0.7117,0.7117,0,0,0,0,0,0,0.7058,0.706,0.7079,0.7071,0.7073,0.7082,0.7087,0.7089,0.7091,0.71,0.7101,0.7096,0.7108,0.7109,0.7112,0.7109,0.7115,0.7116,0.7117,0.7117,0.7117,0.7107,0,0,0,0,0,0,0.7057,0.706,0.7062,0.7071,0.7074,0.7082,0.7087,0.7089,0.7092,0.7093,0.7101,0.7103,0.7108,0.7111,0.7112,0.711,0.7116,0.7118,0.7117,0.7117,0.7108,0.7106,0.7105,0,0,0,0,0,0.7056,0.7059,0.7062,0.7064,0.7076,0.7082,0.7083,0.709,0.7092,0.7093,0.7097,0.7102,0.7109,0.7111,0.7113,0.711,0.7118,0.7117,0.7117,0.7108,0.7107,0.7105,0,0,0,0,0,0,0.705,0.7061,0.7064,0.707,0.7075,0.7084,0.7085,0.7089,0.7093,0.7094,0.7101,0.7102,0.7103,0.7107,0.7109,0.7109,0.7114,0.7114,0.7107,0.7105,0.7104,0.7103,0.7117,0,0,0,0,0,0.7049,0.7054,0.7063,0.7067,0.7069,0.7076,0.7079,0.7083,0.7089,0.7091,0.7096,0.71,0.7102,0.7104,0.7108,0.7108,0.7108,0.7107,0.7106,0.7105,0.7104,0.71,0.7099,0.7115,0.7115,0.7115,0,0,0.7048,0.7054,0.7057,0.7066,0.707,0.7072,0.7078,0.7082,0.7083,0.7091,0.7093,0.7097,0.7101,0.7102,0.7102,0.7105,0.7099,0.7104,0.7103,0.7103,0.71,0.7098,0.7097,0.7115,0.7115,0.7115,0,0,0.7047,0.7053,0.7056,0.7059,0.7065,0.7069,0.7069,0.7077,0.7079,0.7081,0.7086,0.7087,0.7092,0.7094,0.7096,0.709,0.7093,0.7091,0.7085,0.7081,0.708,0.7079,0.7074,0.7072,0.709,0.709,0.709,0,0.7044,0.705,0.7056,0.7058,0.706,0.7067,0.7068,0.707,0.7077,0.7077,0.708,0.7084,0.7088,0.7087,0.7085,0.7088,0.7086,0.709,0.708,0.7079,0.7078,0.7073,0.7071,0.709,0.709,0.709,0.709,0,0.7045,0.7048,0.7049,0.7054,0.7056,0.7058,0.7062,0.7063,0.7066,0.7069,0.7069,0.7073,0.7075,0.7076,0.7079,0.7074,0.7075,0.7079,0.7083,0.7075,0.7071,0.7069,0.7089,0.7089,0.7089,0.7089,0,0,0.7043,0.7048,0.7048,0.7049,0.7054,0.7055,0.7055,0.7057,0.7056,0.706,0.7058,0.706,0.7062,0.7064,0.7067,0.7065,0.7055,0.7068,0.7068,0.7064,0.7046,0.7042,0.704,0.7058,0.7057,0.7057,0.7044,0,0.704,0.7042,0.7045,0.7045,0.7046,0.7049,0.7049,0.705,0.7052,0.7051,0.7053,0.7053,0.7058,0.7058,0.7056,0.7057,0.7052,0.7058,0.7054,0.7054,0.7051,0.7038,0.7035,0.7023,0.7043,0.7043,0.7043,0,0.7039,0.704,0.7039,0.704,0.7041,0.704,0.704,0.704,0.7041,0.7042,0.7041,0.7044,0.7042,0.7046,0.7041,0.7045,0.7043,0.7043,0.7043,0.7042,0.7047,0.7035,0.702,0.7017,0.7041,0.7041,0.7041,0,0.7034,0.7036,0.7034,0.7035,0.7037,0.7035,0.7036,0.7036,0.7036,0.7035,0.7034,0.7033,0.7032,0.703,0.7031,0.7035,0.7024,0.703,0.7023,0.7023,0.7021,0.7021,0.7003,0.7022,0.7022,0.7022,0.7022,0,0.7031,0.703,0.7031,0.7031,0.7028,0.7031,0.7027,0.7028,0.7027,0.7025,0.7028,0.7025,0.7028,0.7024,0.7025,0.7019,0.7019,0.7018,0.7018,0.7017,0.7017,0.7015,0.7015,0.7022,0.7022,0.7022,0.7022,0,0.7025,0.7027,0.7025,0.7026,0.7025,0.7023,0.7022,0.702,0.7021,0.7017,0.7016,0.7017,0.7012,0.7013,0.701,0.701,0.7001,0.7003,0.7,0.7,0.6992,0.6992,0.6972,0.6968,0.6991,0.6991,0.6991,0,0.7023,0.7021,0.7021,0.7019,0.7019,0.7016,0.7015,0.7016,0.7014,0.7012,0.7009,0.7005,0.7001,0.6994,0.6993,0.6989,0.6989,0.6982,0.6989,0.6986,0.6986,0.6985,0.6984,0.6981,0.6981,0.698,0.698,0,0.7017,0.7016,0.7015,0.7011,0.7009,0.7007,0.7005,0.7003,0.7004,0.7001,0.6996,0.6993,0.6987,0.6982,0.6977,0.6975,0.6977,0.6978,0.6976,0.6974,0.6972,0.697,0.6995,0.6979,0.6979,0.6979,0.6979,0.6979,0.7011,0.7008,0.7006,0.7003,0.7,0.6997,0.6994,0.6993,0.6989,0.6984,0.6984,0.6978,0.6974,0.6967,0.6965,0.6959,0.6961,0.6959,0.6958,0.6957,0.6954,0.6973,0.6958,0.6958,0.6958,0.6958,0.6958,0,0.7003,0.7001,0.6998,0.6993,0.6989,0.699,0.6987,0.6983,0.6977,0.6974,0.6969,0.6962,0.6955,0.6952,0.6946,0.6941,0.6941,0.6939,0.6938,0.6937,0.6954,0.6955,0.6938,0.6938,0.6938,0.6938,0.6938,0.6938,0.6999,0.6993,0.6991,0.6983,0.6981,0.6974,0.6971,0.6967,0.6964,0.6955,0.6949,0.6947,0.6942,0.6935,0.6928,0.6927,0.6923,0.692,0.6919,0.6935,0.6937,0.6939,0.694,0.692,0.692,0.6903,0.6903,0.6903]}]]